RH
40 39 33 51 46 51 49 44 58 47 58 59 64 56 66 83 61 52 52 55 48 52 68 93 88 100 99 94 69 58 62 68 68 59 48 37 34 22 22 22 30 19 31 22 27 46 34 39 35
54 64 49 47 64 100 88 55 57 57 40 36 60 67 68 53 41 35 68 61 64 94 91 94 97 58 59 66 76 68 56 47 45 29 25 24 16 16 19 23 27 28 57 60 72 73 69 78 87
49 49 45 48 86 100 96 70 58 83 83 78 67 50 50 49 49 61 84 100 100 100 87 74 58 60 80 84 56 20 25 15 13 15 15 14 16 21 38 50 81 78 90 90 78 95 96 100 98
100 68 52 44 58 54 53 61 73 69 63 54 60 59 50 53 61 100 100 98 82 73 67 72 74 85 70 48 15 16 12 10 12 14 18 22 32 38 37 54 47 42 39 41 44 60 67 58 59
100 92 76 49 53 62 61 65 47 44 52 63 60 71 65 86 100 100 100 89 78 78 77 77 55 36 14 10 10 10 12 14 17 22 23 25 26 28 31 32 33 36 41 48 44 45 49 47 41
74 82 70 73 75 77 66 49 51 51 55 62 81 86 100 100 100 100 99 90 77 77 60 30 16 11 10 10 12 13 16 19 18 18 20 23 26 31 32 32 37 46 51 56 58 53 47 49 46
91 84 84 70 65 57 38 34 62 100 96 80 92 100 99 100 81 100 89 75 61 24 11 10 10 12 13 12 15 15 19 20 22 24 26 28 32 33 33 36 40 42 45 46 53 63 60 58 62
85 56 50 55 46 100 72 100 100 97 99 96 72 79 77 73 67 67 54 38 17 10 9 11 14 17 17 21 24 27 28 30 36 35 36 33 37 43 42 58 52 47 44 41 38 41 59 65 65
76 63 93 86 91 98 100 93 75 55 69 72 56 82 74 67 54 29 15 12 10 13 15 20 24 26 25 26 26 28 29 28 33 41 39 44 45 54 50 48 49 59 63 63 48 43 39 48 57
99 68 70 100 92 82 83 72 71 68 74 67 62 73 50 28 15 10 10 14 20 21 26 23 25 24 24 28 28 30 34 34 34 35 42 44 40 35 32 32 34 36 39 56 57 63 76 78 50
81 78 78 74 80 79 73 65 67 59 60 73 63 40 12 9 10 12 16 21 22 19 21 24 24 26 26 26 28 29 29 33 37 41 42 39 42 44 45 43 39 38 42 37 37 42 62 72 70
75 68 58 48 55 62 56 51 48 33 33 26 13 10 11 12 18 20 25 25 24 22 22 26 31 33 40 48 54 43 39 41 42 46 48 49 46 44 44 44 40 42 51 56 58 55 48 50 57
54 53 47 47 43 32 34 31 26 20 11 9 11 14 16 21 25 24 24 26 23 25 36 64 62 57 53 54 56 58 58 54 52 53 54 57 53 52 56 59 59 59 56 55 59 58 57 55 54
48 36 37 34 30 23 20 12 10 10 11 13 17 20 25 25 23 25 26 32 44 67 82 66 64 61 58 55 56 59 64 58 48 39 34 35 39 46 53 51 44 42 44 49 48 46 50 50 46
20 22 19 15 12 10 10 10 11 13 16 19 21 21 23 29 30 34 36 38 57 60 75 52 47 45 39 41 52 52 40 36 36 38 37 38 40 45 44 41 35 32 34 36 36 40 41 40 41
11 10 10 10 10 11 12 14 17 20 21 21 22 24 27 24 29 28 33 39 37 37 36 28 25 24 27 26 26 25 29 34 41 49 53 55 54 53 57 60 57 50 49 49 48 42 42 45 45
10 11 12 12 14 13 15 21 24 26 26 24 25 33 39 56 42 31 29 25 21 19 17 18 18 21 24 28 31 36 45 53 59 61 63 68 74 76 82 79 70 60 55 55 52 53 51 55 58
12 12 15 16 18 18 24 25 27 29 27 25 24 22 22 24 27 25 26 24 25 24 24 28 28 30 31 32 36 47 60 52 47 44 46 45 45 46 49 52 52 50 53 55 57 58 56 50 42
14 15 15 18 19 20 27 28 29 28 27 26 26 22 20 23 25 27 29 29 29 27 24 25 28 29 33 47 72 76 61 57 58 62 64 62 59 57 64 65 67 69 73 74 65 58 56 57 59
17 17 18 17 17 18 21 22 21 20 17 18 20 20 25 27 25 26 28 28 31 32 31 27 30 41 57 69 68 63 64 73 74 78 84 89 84 84 85 86 83 66 61 60 57 55 54 54 52
18 18 18 20 21 21 25 27 26 22 21 26 29 34 33 34 33 26 26 29 32 33 36 42 48 58 66 64 68 73 79 83 78 80 84 80 81 75 75 77 73 75 64 54 56 51 48 48 45
18 18 18 22 22 22 29 32 32 29 32 31 37 40 41 39 33 31 29 33 33 38 78 90 91 88 96 98 96 84 72 69 67 64 62 65 66 63 66 59 54 55 55 53 46 48 58 61 53
20 19 19 19 22 28 30 29 30 31 32 31 28 26 28 30 29 27 28 31 42 72 86 91 84 75 76 77 69 67 67 62 62 65 67 56 58 70 58 54 57 64 65 64 68 65 67 62 58
18 20 22 25 26 27 25 25 26 23 22 23 25 23 23 23 33 40 48 65 74 83 82 77 80 76 75 70 65 58 55 56 60 63 69 77 57 65 65 68 67 73 75 66 64 62 57 51 44
18 18 20 23 26 23 21 22 21 20 21 22 23 26 28 40 53 62 66 66 67 66 66 66 61 55 49 50 56 55 51 55 64 58 44 50 62 69 79 72 68 73 78 69 59 55 45 38 32
21 18 16 18 22 22 21 21 22 21 20 24 30 36 50 58 63 62 63 58 57 61 64 61 50 50 52 53 57 62 65 67 74 77 76 73 69 66 62 64 64 66 61 54 46 40 36 26 22
21 17 17 17 19 17 18 18 17 19 26 38 48 54 61 54 47 49 57 74 73 70 68 56 61 55 49 51 56 64 69 75 73 70 74 79 70 68 65 64 58 50 38 28 22 21 19 17 17
22 17 15 15 16 17 19 20 22 31 45 58 59 62 53 51 65 81 76 78 75 72 76 64 51 47 48 55 66 76 78 70 72 81 91 83 82 68 59 53 37 26 21 17 17 16 15 14 14
18 17 16 16 17 18 22 27 40 54 55 50 46 52 58 68 73 82 93 87 79 70 58 52 72 76 82 79 73 75 86 91 92 96 84 75 64 48 36 28 21 18 14 12 11 10 10 10 10
22 18 18 22 32 42 44 62 55 50 49 54 64 69 82 79 61 67 70 64 62 60 66 76 88 80 86 87 100 100 100 96 84 69 64 51 42 28 20 16 14 12 10 9 8 8 8 8 8
Wind_Speed
73 72 76 70 70 70 72 72 77 76 77 79 83 84 89 84 91 96 99 101 101 105 110 113 112 117 125 123 127 123 125 124 115 111 110 107 105 98 88 87 78 77 77 78 75 71 71 68 66
78 73 72 73 75 76 76 74 74 79 85 86 85 88 89 98 101 101 101 105 108 109 112 112 114 120 124 126 123 119 114 109 107 101 104 99 88 75 69 69 68 69 58 58 61 59 57 55 54
82 81 80 80 75 77 78 80 81 84 87 87 93 97 98 99 100 105 104 104 106 113 116 122 123 124 119 115 114 111 108 95 87 79 73 70 67 65 55 51 46 51 55 58 57 57 56 57 54
79 83 83 82 82 81 82 86 87 89 90 93 95 101 102 101 106 111 113 123 120 126 126 124 121 113 110 110 99 90 85 70 64 62 59 56 52 48 45 43 46 47 51 49 52 57 58 58 58
84 85 85 84 86 85 87 90 91 93 97 102 104 106 108 110 110 118 119 116 117 118 115 111 111 104 89 86 75 69 60 54 47 43 40 39 34 32 32 33 33 33 34 34 35 36 41 44 47
93 87 88 89 90 92 95 97 96 101 105 107 106 111 109 111 112 116 121 123 108 106 110 100 93 76 63 61 54 50 45 39 35 32 30 28 27 26 27 26 24 25 27 29 28 28 30 33 35
92 91 87 89 92 95 97 99 100 99 107 110 117 110 114 113 119 114 114 106 101 87 81 70 59 48 44 41 36 33 28 25 23 23 21 19 16 17 19 16 15 17 21 25 26 26 27 28 28
98 97 96 96 101 99 102 101 101 119 101 103 104 102 104 105 107 111 97 84 71 63 62 51 43 38 33 31 26 21 21 20 15 16 14 15 12 12 11 12 12 12 14 16 20 24 26 25 26
97 95 97 97 103 110 104 106 111 113 112 110 118 103 98 100 94 86 64 56 50 40 35 29 25 23 23 22 19 18 17 17 18 22 21 22 23 24 22 20 21 23 23 20 16 16 20 26 27
96 98 107 101 97 98 103 108 104 101 99 96 100 92 83 80 70 60 52 35 24 20 13 16 20 24 24 21 22 23 21 22 22 22 23 25 26 26 26 26 26 28 29 25 21 17 15 17 17
98 103 101 101 98 100 101 91 87 88 90 91 88 78 65 54 42 36 26 13 10 11 16 18 21 19 17 19 22 22 21 22 23 25 26 26 26 27 26 27 26 26 27 27 27 26 21 19 17
96 102 98 101 97 87 85 87 85 80 74 72 62 50 33 29 19 15 14 14 14 16 15 13 14 16 20 24 25 25 24 23 23 23 24 25 26 26 27 27 27 27 29 30 30 29 27 25 26
80 85 95 79 75 73 79 81 73 62 52 48 33 20 15 12 9 10 9 9 10 9 14 21 24 26 29 32 32 28 26 26 26 26 27 29 32 33 33 32 31 31 32 33 33 33 32 32 33
76 72 79 73 75 71 58 48 41 41 30 18 13 14 12 11 12 11 10 7 13 17 21 22 22 24 27 32 33 33 34 33 32 33 36 39 39 40 39 38 39 38 39 39 36 36 37 37 36
69 74 58 45 41 37 32 27 22 17 13 12 10 10 10 11 12 14 16 15 18 24 23 25 27 27 31 34 33 35 38 40 41 43 44 43 44 46 46 46 45 44 43 44 45 45 44 43 43
45 37 32 29 24 20 19 14 12 12 12 12 11 15 16 17 19 22 25 26 28 28 26 22 26 33 35 36 39 40 42 45 47 48 49 49 49 48 50 51 51 52 54 54 55 54 54 53 52
24 19 16 16 12 12 10 8 10 12 16 17 16 16 22 24 26 26 28 32 34 36 37 37 37 38 41 43 41 44 46 48 50 49 49 49 50 51 53 55 56 57 58 59 60 61 61 62 62
13 11 11 8 9 9 9 12 14 18 19 21 22 24 26 29 34 37 36 38 40 38 39 44 43 43 43 44 44 47 48 50 50 52 55 57 58 58 58 60 62 63 64 66 66 67 69 71 72
9 9 9 8 10 10 14 17 19 21 23 25 23 29 35 37 36 38 37 40 41 43 44 46 47 48 48 47 48 50 51 55 57 58 62 63 63 64 64 65 68 69 70 71 73 74 76 77 80
8 8 8 10 10 10 13 19 22 23 24 26 30 33 32 35 38 39 41 44 46 49 47 46 47 48 49 52 55 57 60 62 64 65 64 66 67 71 72 75 78 81 81 83 86 87 87 86 88
10 12 12 14 15 16 17 20 21 21 23 26 28 30 34 37 39 42 44 45 48 50 46 47 50 53 56 59 61 63 66 67 67 68 69 72 73 76 79 83 86 88 90 90 93 96 95 95 95
15 17 17 18 19 21 20 18 20 21 22 23 25 31 36 41 44 44 46 51 53 54 52 56 57 59 61 64 67 70 71 71 73 74 75 79 83 86 89 92 94 96 99 100 101 102 102 102 102
19 20 21 22 19 19 17 17 18 18 20 25 30 36 42 43 46 50 50 49 49 51 56 58 60 63 67 70 74 74 75 77 77 79 84 90 92 92 96 100 101 101 105 105 102 102 102 102 101
21 20 19 18 19 18 17 17 19 24 25 28 39 41 43 43 38 39 42 47 52 54 56 59 64 67 71 73 77 80 82 82 83 88 92 93 96 99 103 106 107 107 111 105 100 99 99 99 99
23 21 19 20 21 20 20 22 26 29 33 37 40 41 36 37 41 44 47 48 50 55 59 64 69 73 76 79 81 83 85 88 91 97 99 102 105 108 111 112 113 116 116 108 101 99 97 98 97
26 25 22 21 19 22 24 27 31 35 39 40 39 39 42 45 46 47 50 55 59 63 67 70 72 75 78 81 83 87 92 96 101 106 111 115 117 117 119 119 119 118 112 103 98 95 95 92 90
30 29 26 23 23 27 31 31 37 37 35 38 42 44 46 45 48 54 56 61 65 69 73 74 78 83 85 88 91 95 100 104 108 113 120 124 124 124 123 122 119 113 104 97 92 88 86 85 83
28 28 27 26 26 29 37 41 32 35 39 43 44 45 46 51 55 59 63 66 69 71 75 80 86 91 93 95 98 102 109 114 117 122 131 129 123 122 120 118 112 106 98 91 86 85 83 82 81
18 24 25 27 30 30 33 49 40 42 44 44 45 47 51 56 60 63 66 70 74 78 82 84 88 92 95 99 106 114 120 125 127 132 133 126 121 117 114 111 103 97 94 90 85 84 84 83 81
16 19 22 20 24 30 32 42 42 43 44 48 51 53 57 60 65 69 72 77 80 83 84 88 95 99 101 110 115 123 130 133 131 131 127 122 116 113 106 99 97 96 94 92 89 84 81 78 77
Wind_Direction
260 265 267 266 267 271 272 273 272 279 275 278 274 275 280 281 285 287 286 287 289 290 291 290 291 295 296 296 298 297 296 294 289 287 287 291 288 285 286 284 279 284 278 277 276 272 270 272 270
261 264 264 263 265 269 271 273 273 274 276 276 274 280 283 288 287 287 288 285 286 289 289 290 293 296 296 296 298 295 293 289 288 288 290 290 289 286 286 284 283 281 280 280 278 275 273 274 273
261 263 262 263 263 266 266 270 270 272 274 277 277 284 285 286 289 286 289 293 287 294 297 295 295 295 295 293 293 296 294 291 290 290 288 286 282 281 281 280 278 278 279 276 275 275 275 274 271
256 257 261 262 265 267 268 270 274 275 280 281 284 285 283 285 287 284 288 292 296 296 295 296 297 293 294 295 294 293 292 293 292 292 289 292 286 284 286 283 279 273 275 273 274 272 274 273 271
257 258 259 261 265 271 275 272 274 277 280 282 284 287 285 286 289 287 290 292 294 296 294 294 297 296 294 296 297 293 291 292 295 297 294 289 286 289 290 287 288 290 287 283 279 275 274 274 272
259 263 267 269 269 271 275 277 281 281 281 284 285 285 287 289 289 289 289 293 295 293 295 296 294 293 298 297 295 296 297 298 296 300 302 303 304 301 299 294 291 290 290 287 288 285 282 278 276
261 264 267 268 270 273 277 277 279 285 282 285 290 289 285 287 293 292 291 290 296 295 296 300 299 303 305 305 307 311 315 321 327 329 323 321 322 319 316 311 300 290 287 285 284 287 288 287 285
261 265 267 270 274 275 274 278 276 285 290 288 292 290 289 291 292 291 293 296 297 296 298 302 312 324 324 332 337 341 342 347 357 350 358 353 1 14 7 17 356 341 324 307 290 281 278 281 281
262 267 270 270 274 277 284 286 284 287 292 288 289 289 291 291 295 295 295 297 300 310 317 327 340 354 4 4 2 359 6 7 18 17 12 3 359 358 359 354 351 351 349 353 334 318 296 279 274
261 266 268 281 284 286 287 287 287 289 290 289 288 286 293 292 297 298 301 308 318 323 337 354 3 2 359 9 10 5 1 355 354 353 353 351 346 343 339 337 338 340 336 338 335 339 344 340 309
272 273 278 281 285 284 285 286 283 287 288 286 286 290 294 295 297 297 307 305 328 330 352 4 6 9 5 358 352 349 346 346 344 340 338 335 336 335 331 330 328 330 332 328 328 323 319 323 326
280 274 277 282 278 282 282 288 285 287 290 289 288 293 300 303 312 323 347 349 349 350 357 357 2 1 358 355 352 347 342 336 329 328 328 329 329 328 327 324 322 323 323 322 320 320 317 310 311
273 279 274 275 279 281 284 281 283 288 289 286 294 306 315 317 338 335 329 329 332 344 349 352 352 352 351 349 344 339 331 327 326 326 324 324 323 323 318 316 314 312 310 308 306 304 305 303 299
271 273 271 271 277 283 279 281 286 284 285 294 323 321 319 321 311 304 297 326 335 334 334 340 338 335 337 338 334 330 324 321 319 318 317 316 316 316 314 310 306 305 305 302 297 294 292 290 289
276 274 275 276 277 274 280 284 279 289 304 319 311 292 292 306 304 303 307 317 320 316 315 320 320 321 324 321 316 314 317 317 315 316 316 314 313 312 311 310 307 304 304 303 299 295 293 289 287
273 274 280 276 275 277 278 281 287 308 306 302 288 294 301 297 300 306 308 308 305 301 289 289 308 314 312 310 311 313 316 316 314 313 312 312 313 313 312 310 307 305 303 301 299 296 293 291 288
267 274 267 261 270 279 290 284 278 281 284 293 286 300 301 291 292 295 298 299 306 310 308 305 308 311 312 313 312 313 314 312 311 310 310 311 311 310 308 306 304 303 300 297 295 293 290 288 287
259 253 244 253 277 290 286 270 268 271 278 282 282 287 302 299 294 297 298 306 308 309 314 316 314 310 308 307 310 311 310 307 305 306 306 306 305 302 299 297 297 296 295 293 291 289 288 287 286
252 254 270 291 289 287 267 267 273 280 286 289 288 297 301 301 299 301 303 307 313 308 308 310 310 309 308 308 309 305 304 304 306 305 305 305 304 303 304 304 304 302 300 297 294 290 289 287 287
275 275 276 273 282 284 282 280 282 285 289 289 285 295 298 299 299 302 303 309 316 316 310 308 310 310 308 306 304 304 306 306 307 309 308 308 307 306 305 303 302 301 300 299 296 293 292 290 287
256 267 278 288 297 302 297 291 291 295 297 305 309 305 301 298 298 301 307 308 309 312 311 311 310 308 307 306 307 308 308 309 307 306 305 305 303 302 301 303 303 302 299 297 294 293 292 290 289
263 267 271 280 291 302 304 296 298 299 300 304 310 311 309 305 304 304 303 306 307 311 313 313 313 311 309 309 309 308 307 306 305 304 303 303 303 303 304 303 303 302 300 298 295 294 294 293 290
253 257 265 273 284 294 293 284 292 305 305 310 310 309 299 296 299 303 303 306 310 310 308 307 305 308 309 308 306 306 306 305 303 302 302 305 306 305 304 304 303 302 304 301 298 295 292 291 290
246 253 265 276 284 284 285 287 291 297 299 305 307 303 298 302 306 307 309 308 305 304 304 306 307 308 308 306 304 303 303 302 301 303 305 303 302 302 302 303 304 303 305 301 296 295 291 289 287
253 252 257 266 277 281 284 284 286 290 302 306 306 304 308 307 306 305 304 304 303 303 304 307 308 308 307 305 303 304 304 305 304 304 303 304 304 303 304 303 304 304 305 300 297 295 291 288 287
256 261 262 269 272 276 279 283 284 294 305 308 305 307 309 308 306 305 304 304 306 307 309 309 309 308 306 304 305 306 307 306 306 307 306 306 305 304 304 303 304 304 301 297 294 292 289 286 285
255 263 271 272 278 290 294 293 298 304 307 304 305 308 309 308 306 306 307 309 310 311 310 308 307 307 308 307 307 307 309 309 308 309 311 311 306 304 305 305 304 301 298 295 293 290 288 285 284
258 265 275 280 289 295 295 295 301 305 306 306 306 306 306 311 311 309 309 309 310 308 307 307 309 311 312 311 311 312 312 311 312 312 313 311 308 307 306 304 302 300 298 296 295 292 289 285 283
281 272 282 287 291 293 296 294 305 307 306 306 308 308 310 310 309 309 309 307 305 304 307 312 318 318 316 315 316 317 316 313 312 312 311 309 308 306 305 303 302 300 299 297 294 291 288 285 283
315 300 293 293 298 299 303 295 305 307 309 311 311 309 308 309 311 309 306 306 309 313 313 315 316 318 317 317 316 315 316 314 313 311 309 308 307 307 305 304 303 301 299 298 296 292 288 285 283